Lawrence, KS

6:01 AM CDT on May 25, 2017 (GMT -0500)
Lawrence Municipal

Weather History for KLWC - January, 2013

Change the Weather History Date:

Wednesday, January 9, 2013

  Actual Average Record
Temperature  
Mean Temperature 36 °F 29 °F  
Max Temperature 52 °F 39 °F 60 °F (2009)
Min Temperature 20 °F 18 °F -2 °F (1999)
Degree Days  
Heating Degree Days 29 36  
Month to date heating degree days 317 324  
Since 1 July heating degree days 2257 2367  
Cooling Degree Days 0 0  
Month to date cooling degree days 0 0  
Year to date cooling degree days 0 0  
Moisture  
Dew Point 27 °F    
Average Humidity 71    
Maximum Humidity 92    
Minimum Humidity 50    
Precipitation  
Precipitation 0.00 in 0.02 in 0.06 in (2000)
Month to date precipitation 0.00 0.25  
Year to date precipitation 0.00 0.25  
Sea Level Pressure  
Sea Level Pressure 30.37 in    
Wind  
Wind Speed 3 mph (ENE)    
Max Wind Speed 10 mph    
Max Gust Speed 15 mph    
Visibility 8 miles    
Events      
T = Trace of Precipitation, MM = Missing Value Source: NWS Daily Summary

Daily Weather History Graph

Daily Weather History Graph

Search for Another Location

Airport or City:

Trip Planner

Search our weather history database for the weather conditions in past years. The results will help you decide how hot, cold, wet, or windy it might be!

Date:

Astronomy

Jan. 09, 2013 Rise Set
Actual Time 7:39 AM CST 5:16 PM CST
Civil Twilight 7:10 AM CST 5:46 PM CST
Nautical Twilight 6:37 AM CST 6:19 PM CST
Astronomical Twilight 6:04 AM CST 6:51 PM CST
Moon 5:19 AM CST (1/9) 3:19 PM CST (1/9)
Length of Visible Light 10h 36m
Length of Day
9h 37m
Waning Crescent, 6% of the Moon is Illuminated
Jan 9
Waning Crescent
Jan 11
New
Jan 18
First Quarter
Jan 26
Full
Feb 3
Last Quarter

Hourly Weather History & Observations

Time (CST) Temp. Windchill Dew Point Humidity Pressure Visibility Wind Dir Wind Speed Gust Speed Precip Events Conditions
1:52 AM 24.1 °F 19.7 °F 21.0 °F 88% 30.26 in 9.0 mi NW 3.5 mph - N/A   Clear
2:52 AM 25.0 °F - 21.9 °F 88% 30.28 in 8.0 mi Calm Calm - N/A   Clear
3:52 AM 21.9 °F - 19.9 °F 92% 30.30 in 7.0 mi Calm Calm - N/A   Clear
4:52 AM 24.1 °F 18.2 °F 21.9 °F 91% 30.31 in 7.0 mi NNW 4.6 mph - N/A   Clear
5:52 AM 21.0 °F 11.4 °F 18.0 °F 88% 30.33 in 7.0 mi NW 8.1 mph - N/A   Clear
6:52 AM 21.9 °F - 19.0 °F 89% 30.35 in 6.0 mi Calm Calm - N/A   Clear
7:52 AM 21.0 °F 13.4 °F 17.1 °F 85% 30.40 in 5.0 mi NNW 5.8 mph - N/A   Clear
8:52 AM 28.0 °F 21.7 °F 24.1 °F 85% 30.43 in 4.0 mi NW 5.8 mph - N/A   Clear
9:52 AM 35.1 °F 27.9 °F 30.0 °F 82% 30.43 in 6.0 mi WNW 9.2 mph - N/A   Haze
11:52 AM 43.0 °F - 30.9 °F 62% 30.42 in 8.0 mi Calm Calm - N/A   Clear
12:52 PM 46.0 °F - 32.0 °F 58% 30.40 in 9.0 mi Calm Calm - N/A   Clear
1:52 PM 48.9 °F - 32.0 °F 52% 30.39 in 10.0 mi SSE 3.5 mph - N/A   Clear
2:52 PM 51.1 °F - 33.1 °F 50% 30.39 in 10.0 mi SSE 4.6 mph - N/A   Clear
3:52 PM 50.0 °F - 33.1 °F 52% 30.41 in 10.0 mi SSE 6.9 mph - N/A   Clear
4:52 PM 46.9 °F - 33.1 °F 59% 30.40 in 10.0 mi ESE 3.5 mph - N/A   Clear
5:52 PM 37.9 °F - 30.0 °F 73% 30.40 in 10.0 mi Calm Calm - N/A   Clear
6:52 PM 35.1 °F - 28.0 °F 76% 30.41 in 10.0 mi Calm Calm - N/A   Clear
7:52 PM 34.0 °F - 28.9 °F 82% 30.41 in 10.0 mi Calm Calm - N/A   Clear
8:52 PM 33.1 °F 30.0 °F 28.0 °F 82% 30.41 in 10.0 mi East 3.5 mph - N/A   Clear
9:52 PM 43.0 °F 38.2 °F 30.0 °F 60% 30.39 in 10.0 mi East 8.1 mph - N/A   Clear
10:52 PM 43.0 °F 38.2 °F 30.0 °F 60% 30.37 in 10.0 mi East 8.1 mph - N/A   Clear
11:52 PM 37.0 °F 33.3 °F 28.0 °F 70% 30.36 in 10.0 mi East 4.6 mph - N/A   Clear